Starlink 30254

operational
NORAD ID: 57533 Int'l Des: 2023-115 Owner: SPXS Country: US Constellation: starlink
LEOCIRCULAR

About Starlink 30254

Description loading...

Live Position

Loading 3D Globe...

Upcoming Passes

Altitude History

Altitude vs Time

uPlot chart will show altitude changes over time

Two-Line Element Set

1 57533U 23115N 25353.61492779 .00000993 00000-0 45609-4 0 9997
2 57533 43.0013 195.3824 0000771 267.3851 92.6913 15.27571589133114
Epoch: Dec 19, 2025 • Age: 18 hours

Current Status

Altitude 483.3 km
Velocity 7.63 km/s
Sub-Earth Point 25.16°N, 122.36°E
Launch Date Aug 8, 2023
Age 2.3 years
Type internet

Technical Details

Classification Payload
Mass 730.00 kg
Dry Mass 700.00 kg
Total Mass 730.00 kg
Length 0.30 m
Diameter 4.10 m
Span 29.00 m
Shape Box + pan
Manufacturer SPXS
Bus Type Starlink V2M
Phase Status In Orbit
Owner/State SPXS/US

Large Constellations

Loading constellations...